Location: Tamazert
(32.6352°N, 5.2072°W)
Time: 12:29:23
(UTC+00:00)

A-11 Canister half - All Passes

Search period start: 05 October 2022 00:00
Search period end: 15 October 2022 00:00
Orbit: 1515 x 1684 km, 47.2° (Epoch: 04 October)

Date Brightness Start Highest point End Pass type
(mag) Time Alt. Az. Time Alt. Az. Time Alt. Az.
05 Oct - 01:05:30 10° NW 01:14:22 44° NNE 01:23:04 10° E visible
05 Oct - 03:10:33 10° NW 03:19:50 77° SW 03:29:03 10° SE visible
05 Oct - 05:17:51 10° W 05:23:36 18° SW 05:29:25 10° SSW visible
05 Oct - 18:23:07 10° SSW 18:32:36 51° SE 18:41:46 10° ENE visible
05 Oct - 20:27:51 10° WSW 20:37:31 59° NNW 20:46:53 10° NE visible
05 Oct - 22:35:44 10° WNW 22:44:13 33° N 22:52:29 10° ENE visible
06 Oct - 00:42:32 10° NW 00:51:21 42° NNE 01:00:00 10° E night (unlit)
06 Oct - 02:47:37 10° NW 02:56:56 81° SW 03:06:10 10° SE visible
06 Oct - 04:54:34 10° W 05:00:47 20° SW 05:07:01 10° SSW visible
06 Oct - 18:00:19 10° SSW 18:09:42 47° SE 18:18:47 10° ENE daylight
06 Oct - 20:04:48 10° WSW 20:14:33 62° NNW 20:23:58 10° NE visible
06 Oct - 22:12:37 10° WNW 22:21:09 34° N 22:29:28 10° NE visible
07 Oct - 00:19:33 10° NW 00:28:20 41° NNE 00:36:56 10° E visible
07 Oct - 02:24:40 10° NW 02:34:02 86° SW 02:43:17 10° SE visible
07 Oct - 04:31:20 10° W 04:37:56 22° SW 04:44:34 10° S visible
07 Oct - 17:37:32 10° SSW 17:46:48 44° SE 17:55:47 10° ENE daylight
07 Oct - 19:41:44 10° WSW 19:51:34 65° NNW 20:01:04 10° NE visible
07 Oct - 21:49:29 10° WNW 21:58:06 34° N 22:06:28 10° NE visible
07 Oct - 23:56:34 10° NW 00:05:19 40° NNE 00:13:51 10° E visible
08 Oct - 02:01:43 10° NW 02:11:07 90° NE 02:20:23 10° SE visible
08 Oct - 04:08:09 10° WNW 04:15:06 24° SW 04:22:05 10° S visible
08 Oct - 17:14:47 10° SSW 17:23:54 41° SE 17:32:45 10° ENE daylight
08 Oct - 19:18:42 10° WSW 19:28:35 68° NNW 19:38:09 10° NE visible
08 Oct - 21:26:20 10° WNW 21:35:02 35° N 21:43:29 10° NE visible
08 Oct - 23:33:33 10° NW 23:42:17 38° NNE 23:50:48 10° E visible
09 Oct - 01:38:47 10° NW 01:48:12 85° NE 01:57:28 10° SE visible
09 Oct - 03:45:00 10° WNW 03:52:16 27° SW 03:59:32 10° S visible
09 Oct - 16:52:03 10° SSW 17:01:00 38° SE 17:09:44 10° ENE daylight
09 Oct - 18:55:39 10° WSW 19:05:36 71° NW 19:15:14 10° NE visible
09 Oct - 21:03:11 10° WNW 21:11:58 36° NNW 21:20:29 10° NE visible
09 Oct - 23:10:33 10° NW 23:19:15 38° NNE 23:27:42 10° E visible
10 Oct - 01:15:50 10° NW 01:25:17 81° NE 01:34:32 10° SE night (unlit)
10 Oct - 03:21:52 10° WNW 03:29:25 29° SW 03:36:58 10° S visible
10 Oct - 16:29:20 10° S 16:38:06 35° SE 16:46:41 10° ENE daylight
10 Oct - 18:32:37 10° WSW 18:42:37 75° NW 18:52:19 10° NE visible
10 Oct - 20:40:03 10° WNW 20:48:54 37° NNW 20:57:30 10° NE visible
10 Oct - 22:47:31 10° NW 22:56:12 37° NNE 23:04:38 10° ENE visible
11 Oct - 00:52:53 10° NW 01:02:21 77° NE 01:11:35 10° ESE night (unlit)
11 Oct - 02:58:45 10° WNW 03:06:35 31° SW 03:14:22 10° S visible
11 Oct - 16:06:38 10° S 16:15:13 33° SE 16:23:36 10° ENE daylight
11 Oct - 18:09:37 10° WSW 18:19:40 79° NW 18:29:23 10° NE visible
11 Oct - 20:16:55 10° W 20:25:51 38° NNW 20:34:32 10° NE visible
11 Oct - 22:24:30 10° NW 22:33:09 36° NNE 22:41:34 10° ENE visible
12 Oct - 00:29:56 10° NW 00:39:25 73° NE 00:48:38 10° ESE night (unlit)
12 Oct - 02:35:40 10° WNW 02:43:43 34° SW 02:51:44 10° S night (unlit)
12 Oct - 15:43:59 10° S 15:52:20 30° SE 16:00:29 10° ENE daylight
12 Oct - 17:46:36 10° SW 17:56:42 83° NW 18:06:28 10° NE daylight
12 Oct - 19:53:45 10° W 20:02:48 39° NNW 20:11:34 10° NE visible
12 Oct - 22:01:27 10° NW 22:10:06 35° N 22:18:30 10° ENE visible
13 Oct - 00:06:59 10° NW 00:16:28 70° NNE 00:25:40 10° ESE visible
13 Oct - 02:12:36 10° WNW 02:20:52 37° SW 02:29:04 10° SSE night (unlit)
13 Oct - 15:21:21 10° S 15:29:27 28° SE 15:37:22 10° ENE daylight
13 Oct - 17:23:38 10° SW 17:33:43 87° NW 17:43:33 10° NE daylight
13 Oct - 19:30:37 10° W 19:39:44 40° NNW 19:48:36 10° NE visible
13 Oct - 21:38:23 10° NW 21:47:02 35° N 21:55:25 10° ENE visible
13 Oct - 23:44:02 10° NW 23:53:30 66° NNE 00:02:42 10° ESE visible
14 Oct - 01:49:33 10° WNW 01:58:01 40° SW 02:06:23 10° SSE night (unlit)
14 Oct - 14:58:46 10° S 15:06:33 26° SE 15:14:13 10° ENE daylight
14 Oct - 17:00:39 10° SW 17:10:46 89° SE 17:20:36 10° NE daylight
14 Oct - 19:07:27 10° W 19:16:41 41° NNW 19:25:39 10° NE visible
14 Oct - 21:15:20 10° NW 21:23:58 34° N 21:32:21 10° ENE visible
14 Oct - 23:21:05 10° NW 23:30:33 63° NNE 23:39:43 10° ESE visible
